Location: Rowland
(34.5359°N, 79.2929°W)
Time: 14:33:04
(UTC+00:00)

Transit 4A - Pass Details

Date: 10 October 2022
Orbit: 871 x 972 km, 66.8° (Epoch: 29 November)

Event Time Altitude Azimuth Distance (km) Brightness Sun altitude
Rises 00:55:35 0° 195° (SSW) 3,616 11.0 -26.5°
Reaches altitude 10° 00:58:10 10° 192° (SSW) 2,661 10.3 -27.1°
Enters shadow 01:01:37 34° 180° (S) 1,490 8.8 -27.8°
Maximum altitude 01:04:16 63° 113° (ESE) 1,034 - -28.3°
Drops below altitude 10° 01:10:15 10° 33° (NNE) 2,606 - -29.5°
Sets 01:12:45 0° 31° (NNE) 3,536 - -30.0°
